CAPE
1212 1788 2124 2401 2276 2108 2112 2494 2446 2186 2000 1820 1675 1624 1580 1532 1455 1437 1303 1312 1351 1360 1336 1335 1275 1274 1320 1259 1186 1219 1383 1487 1571 1606 1596 1508 1450 1408 1465 1618 1646 1708 1715 1744 1676 1202 902 665 610 545 625 621 769 815 737 742 856 994 1256 1238 1219 989 466 452 450 275 71 39 164 194 272 203 1 2 46 51 18 11 12 22 119 420 319 294 321
1446 1863 2186 2314 2199 2049 2129 2451 2286 2100 1978 1781 1622 1588 1608 1580 1503 1353 1343 1381 1424 1401 1357 1288 1262 1226 1318 1414 1252 1372 1493 1542 1600 1532 1528 1500 1392 1216 1238 1678 1946 1838 1740 1680 1589 1236 1034 771 618 583 540 883 1236 1400 1352 1095 1062 1049 1019 1068 1128 772 549 838 534 263 423 427 229 825 738 166 3 41 34 29 22 14 39 86 135 115 352 422 397
1518 1817 2118 2229 2198 2044 2177 2406 2261 2073 1957 1788 1698 1674 1724 1657 1606 1510 1432 1496 1508 1501 1375 1369 1312 1292 1337 1470 1310 1240 1346 1451 1499 1497 1365 1344 1313 1188 1035 887 1069 1293 1361 1334 1531 1220 863 770 795 708 698 765 951 1499 1614 1629 1519 1397 1210 961 908 861 660 576 405 619 787 534 467 651 725 498 195 93 56 36 19 43 48 62 102 370 418 517 450
1485 1798 2065 2306 2140 2034 2176 2186 2083 1878 1777 1816 1812 1784 1784 1751 1716 1607 1558 1607 1649 1574 1490 1437 1323 1339 1408 1394 1480 1409 1314 1359 1389 1371 1374 1290 1260 1052 977 777 1362 1360 1491 1424 1179 1071 994 1061 892 727 760 741 740 1251 1410 1557 1539 1448 1339 1244 1076 1069 797 588 482 751 394 453 412 395 497 420 432 137 63 68 47 22 31 76 100 235 352 452 456
1573 1856 2075 2039 1966 2016 2161 2162 1921 1814 1818 1914 1912 1906 1915 1845 1809 1731 1731 1688 1655 1576 1536 1486 1435 1340 1388 1457 1503 1529 1458 1361 1420 1340 1535 1620 1387 912 759 683 1096 1033 734 770 802 837 976 1018 828 834 753 683 851 1029 1214 1327 1417 1374 1390 1398 1318 1260 1093 929 629 824 498 555 596 241 390 550 548 213 48 81 116 79 64 23 46 94 213 357 349
1501 1754 1876 1881 1828 1973 2160 2072 1876 1807 1904 2027 2036 2010 2004 2009 1941 1856 1830 1805 1666 1602 1574 1516 1473 1413 1412 1378 1441 1497 1477 1410 1349 1212 1230 1665 1392 816 668 730 737 726 780 851 873 856 963 1002 888 818 569 520 539 627 843 994 1196 1238 1242 1330 1351 1373 1423 1383 1017 829 884 867 1047 306 49 339 507 461 220 148 99 63 72 46 25 46 62 200 206
1474 1563 1698 1795 1818 1979 2149 1998 1840 1844 1958 2172 2085 2149 2116 2118 2022 1925 1846 1796 1631 1667 1683 1627 1543 1421 1428 1345 1310 1382 1376 1360 1388 1203 1311 1666 1536 1142 753 788 743 786 755 742 773 728 946 892 876 799 601 536 500 524 680 790 952 977 945 1152 1302 1208 1306 1290 1339 1128 1412 1542 805 263 185 62 256 340 234 81 37 132 107 72 29 101 104 95 93
1121 1390 1559 1740 1880 2053 2080 1898 1815 1961 2147 2260 2220 2184 2127 2088 2014 1966 1957 1904 1867 1853 1707 1662 1572 1444 1444 1519 1447 1387 1352 1323 1336 1207 1089 1267 1508 1440 1197 829 813 1012 1026 925 791 792 792 925 924 621 619 600 509 717 726 850 866 866 906 999 1247 1294 1146 1365 1395 1380 1570 1447 919 411 82 111 434 543 556 240 85 72 57 54 35 47 39 31 35
1029 1201 1472 1753 1915 2074 1970 1813 1843 1937 1975 2227 2167 2112 2139 2056 2077 2084 2066 1937 1924 1854 1782 1686 1683 1536 1623 1586 1536 1390 1256 1202 1209 1168 1031 1054 1543 1721 1743 1476 1405 1748 1711 1719 1556 1059 868 1051 1002 708 593 586 599 691 788 752 783 847 870 972 1221 1271 1378 1349 1389 1438 1230 853 401 348 178 23 320 481 518 138 38 14 33 74 110 44 22 22 20
947 1180 1481 1812 1899 2016 1841 1776 1875 1855 1893 1941 2070 2141 2083 2159 2106 2162 2085 1971 1942 1836 1700 1686 1719 1606 1652 1629 1568 1456 1361 1316 1385 1367 1033 937 986 1042 996 972 1044 1324 1350 1176 1319 1414 1267 1178 942 748 752 728 750 768 784 720 704 843 916 1096 710 1146 1142 1220 1370 916 522 409 372 364 270 292 186 476 478 135 26 43 44 150 214 33 78 169 155
992 1208 1490 1760 1904 1818 1744 1841 1911 1928 1887 2103 2295 2242 2211 2230 2277 2220 2071 2020 1943 1827 1695 1773 1799 1682 1622 1573 1517 1532 1559 1456 1365 1417 1146 927 891 912 916 907 1000 1142 1240 1188 1050 1099 1236 1136 914 829 933 882 788 648 676 707 882 970 1063 1066 1025 1162 1284 1412 1281 551 429 425 508 602 634 541 321 405 554 140 47 36 24 181 165 122 60 41 119
1101 1155 1505 1774 2010 1733 1790 1908 1863 1876 1968 2323 2283 2331 2348 2375 2314 2203 2116 2031 1978 1801 1786 1851 1770 1605 1521 1461 1410 1521 1545 1452 1409 1335 1228 1098 960 916 930 947 925 1057 1193 1282 1335 1364 1319 1107 976 985 1048 986 894 695 716 868 937 1180 1238 1220 1288 1334 1408 1594 1115 498 547 531 580 595 644 724 788 838 808 664 519 399 252 100 58 28 39 34 60
1037 1294 1606 1808 1756 1809 1829 1858 1885 1916 2119 2197 2312 2455 2490 2388 2287 2207 2110 2030 2000 1928 1927 1855 1769 1748 1662 1543 1612 1536 1616 1591 1683 1620 1553 1250 1137 1078 1018 984 989 1013 1036 1207 1383 1342 1229 1097 1078 1040 1014 1018 1012 916 934 948 1088 1142 1243 1186 1240 1404 1572 1911 1343 503 450 514 532 620 760 876 865 1010 833 376 228 219 204 224 139 79 35 22 14
1162 1450 1591 1634 1711 2026 1826 1740 1817 1914 1918 2113 2184 2164 2096 2064 2163 2043 1991 2024 1989 1957 1905 1842 1794 1736 1666 1630 1681 1658 1660 1628 1638 1632 1598 1528 1223 1154 1079 1004 963 990 1010 1049 1260 1367 1243 1107 955 903 861 1050 1044 930 934 1014 1033 1212 1100 1230 1282 1577 1830 1599 1476 650 626 707 509 480 459 403 385 512 563 463 238 150 93 60 24 52 43 10 25
1294 1404 1478 1592 1869 1887 1988 1777 1797 1712 1736 1819 1832 1844 1893 1940 1931 1912 1993 2017 1982 1942 1892 1836 1788 1668 1614 1565 1547 1583 1633 1680 1644 1591 1611 1534 1410 1230 1128 1052 1108 1271 1378 1325 1316 1351 1221 1095 1001 1075 1120 1070 947 1000 933 1049 969 1114 1111 1340 1561 1702 1925 1707 1338 642 525 535 619 448 476 529 693 532 509 481 444 419 348 226 171 122 46 20 8
1270 1349 1494 1644 1744 1930 1918 2006 1768 1660 1710 1760 1767 1824 1844 1851 1874 1941 1942 1927 1905 1911 1931 1879 1703 1686 1726 1614 1605 1634 1626 1698 1593 1529 1488 1465 1384 1294 1190 1104 1118 1269 1415 1502 1455 1238 1094 1165 1152 1178 1162 1002 1066 1029 1079 1065 1177 1125 1417 1489 1567 1751 1955 2121 1399 691 591 507 527 353 465 638 846 610 511 410 432 448 392 284 110 71 16 23 12
1324 1376 1468 1606 1736 1764 1771 1852 1738 1781 1662 1670 1735 1752 1735 1768 1827 1869 1884 1894 1926 1900 1829 1762 1721 1738 1742 1694 1648 1703 1709 1664 1577 1554 1513 1449 1370 1277 1217 1208 1221 1242 1346 1343 1188 1119 1167 1168 1167 1184 1133 1020 1058 1093 917 989 1236 1260 1544 1475 1699 1834 2035 2399 867 726 610 578 418 392 475 570 681 602 539 530 699 577 318 210 162 121 94 53 19
1158 1280 1398 1576 1620 1653 1716 1605 1746 1521 1528 1656 1727 1679 1723 1727 1778 1839 1813 1855 1902 1853 1822 1765 1723 1589 1740 1673 1679 1674 1666 1696 1700 1692 1620 1437 1337 1254 1298 1334 1287 1276 1271 1245 1274 1266 1162 1026 1021 1092 1154 1074 1114 1127 1107 1149 1180 1400 1610 1527 1680 1951 2389 2029 626 602 650 594 558 518 482 1009 858 538 472 429 452 420 349 180 180 182 131 75 27
1142 1188 1325 1409 1460 1590 1573 1575 1414 1342 1352 1368 1452 1688 1744 1774 1766 1735 1723 1735 1577 1543 1687 1672 1629 1724 1800 1778 1737 1689 1604 1683 1671 1596 1539 1504 1328 1365 1302 1272 1214 1181 1246 1213 1281 1195 1063 1034 1052 996 1052 1095 1145 1081 1150 1406 1296 1552 1410 1777 1942 2192 2403 1144 720 705 735 663 615 538 614 912 836 607 638 556 530 532 588 457 214 202 204 144 80
1141 1149 1140 1236 1406 1469 1528 1451 1298 1206 1183 1208 1279 1486 1726 1775 1596 1653 1775 1756 1707 1674 1718 1835 1778 1693 1637 1597 1569 1707 1730 1649 1679 1552 1536 1541 1400 1291 1339 1274 1292 1265 1179 1140 1115 1082 1138 1161 1120 1001 966 940 1098 1079 1073 1252 1401 1624 1682 1747 2099 2309 1005 1016 756 697 658 613 516 580 926 955 754 584 634 554 564 578 606 450 402 319 211 200 188
1130 1107 957 1158 1297 1414 1437 1341 1247 1104 1110 1128 1180 1346 1614 1604 1682 1803 1940 1964 1901 1863 1542 1736 1741 1641 1479 1678 1515 1519 1491 1492 1525 1407 1559 1499 1388 1478 1344 1364 1283 1213 1199 1163 1103 1136 1046 1110 1118 1111 1125 911 961 947 1090 1235 1376 1545 1704 1844 2100 1485 1090 792 662 644 674 811 828 709 1148 1048 826 596 572 662 628 625 655 590 570 480 361 282 145
1165 1286 1184 1255 1308 1317 1302 1243 1147 1038 1026 976 1016 1207 1319 1343 1419 1531 1679 1688 1618 1443 1544 1653 1782 1520 1448 1330 1264 1521 1368 1350 1553 1654 1475 1563 1414 1459 1418 1405 1272 1153 1072 990 947 989 1012 1022 1031 992 1103 1046 995 1030 878 1254 1414 1647 1817 2071 1810 1179 926 570 506 605 653 748 935 1125 1154 1038 721 609 505 450 552 562 639 728 786 567 297 264 217
1065 1162 1122 1148 1156 1179 1160 1123 1014 989 919 834 827 848 1026 1198 1258 1338 1501 1471 1405 1671 1604 1643 1568 1292 1176 1195 1327 1305 1236 1275 1460 1502 1560 1427 1559 1497 1494 1468 1328 1146 1000 912 889 915 901 875 1041 1076 1115 1091 1057 962 511 503 758 1625 1841 1749 1126 963 572 525 565 656 739 906 850 1188 1100 1002 637 465 486 628 545 885 1006 989 759 490 362 262 182
926 935 1036 1001 946 928 928 897 867 924 733 645 715 535 574 840 983 1135 1280 1293 1425 1252 1261 1422 1240 1106 1176 1292 1373 1562 1276 1079 1298 1498 1546 1512 1481 1481 1539 1496 1383 1291 1046 976 771 665 808 927 898 829 927 1023 872 782 470 413 621 808 1048 919 1068 960 543 534 644 817 1016 1239 904 1209 1112 857 595 424 373 523 888 1181 1165 1046 794 542 372 290 239
926 887 867 926 873 679 510 635 827 780 625 540 315 496 662 639 813 910 1038 1114 1111 1123 1132 1138 960 892 1009 1163 1189 1200 1120 1149 1102 1122 1173 1226 1240 1247 1255 1232 1154 1184 1161 734 708 569 762 280 157 560 451 467 354 285 240 274 626 815 627 662 912 751 587 606 718 824 944 1057 1128 1334 1234 866 670 493 424 718 1294 1340 1275 963 867 705 476 302 230
960 1032 1014 977 879 643 588 528 722 625 596 541 367 927 765 602 764 864 889 924 1057 1144 1074 915 816 892 920 1000 995 1040 959 808 831 1028 1118 1182 1192 1184 1151 1068 1082 1042 1179 858 691 430 501 249 169 59 100 220 280 304 399 459 651 580 484 690 790 734 461 592 750 817 904 1056 1280 1305 1264 1112 932 525 366 956 1265 1349 1257 1052 864 706 562 358 266
1102 1094 930 885 952 819 647 581 645 590 594 780 745 899 762 691 754 800 922 1019 1074 1062 919 820 842 836 802 994 895 906 859 775 814 868 956 1012 1074 1023 960 883 801 832 963 842 604 795 611 297 386 482 417 314 342 455 465 530 659 582 564 669 639 524 471 483 671 770 902 972 1296 1404 1449 1446 1242 670 406 714 1091 1230 1116 891 540 424 645 576 447
1299 1151 951 912 1065 923 686 482 660 583 547 788 807 653 585 894 732 735 710 744 795 828 763 789 911 815 867 869 1019 853 839 814 859 932 664 728 978 1122 1086 1214 808 1340 1353 889 658 639 695 695 729 678 574 577 604 521 510 448 541 536 550 570 520 464 495 494 620 802 904 1000 1121 1487 1294 1139 1165 1136 726 671 860 1118 725 454 312 624 928 782 616
1363 1355 1177 1119 986 884 743 625 706 629 438 673 697 626 703 828 681 566 478 906 758 664 614 682 790 904 741 885 957 876 889 879 887 843 663 642 774 748 1068 1014 876 907 984 958 994 930 735 510 676 759 734 559 459 198 346 500 439 456 513 437 550 512 489 460 570 738 866 950 1118 1322 1342 1340 1188 1014 818 728 663 589 610 578 375 325 780 837 662
1345 1343 1313 1192 972 899 881 713 844 616 492 460 734 436 532 591 521 414 498 556 682 675 726 670 750 929 801 926 1155 936 947 955 904 779 644 499 443 613 719 842 784 703 679 655 621 512 485 499 536 592 451 260 68 20 155 338 297 474 432 329 396 448 544 607 570 630 795 939 1096 1324 1429 1434 1214 1155 1021 712 633 638 647 633 527 270 654 847 777
1302 1239 1255 1138 1022 879 696 636 670 550 562 600 612 588 658 544 397 549 373 314 395 556 779 772 779 884 718 1062 1402 1534 942 922 887 760 666 461 445 537 774 952 775 492 822 609 505 486 315 367 339 304 316 157 48 6 19 286 298 446 427 502 436 369 571 551 530 538 776 984 1141 1268 1433 1443 1430 1403 1285 1165 907 749 591 642 641 406 329 988 993
1326 1204 1167 1150 937 732 664 678 562 553 537 470 595 577 409 317 301 401 491 532 527 663 831 795 942 989 1099 1203 1508 1498 1156 1000 718 599 428 457 323 366 689 1000 953 686 691 564 528 243 373 532 398 393 173 136 120 37 59 230 306 312 386 370 453 469 569 569 534 546 673 877 1015 1116 1103 1228 1513 1369 1283 1191 1075 1036 1025 533 693 779 595 439 879
1351 1205 895 931 883 934 794 675 566 470 523 337 234 416 516 319 412 584 655 677 648 771 982 876 949 1107 1278 1410 1284 1379 1133 1113 908 608 522 161 367 433 528 1060 952 970 843 769 512 364 421 561 386 317 319 221 215 50 208 165 374 360 368 532 623 653 588 533 629 712 636 663 842 850 985 1127 1225 1456 1463 1507 1436 1326 1151 982 619 688 661 646 672
1217 1127 895 984 930 913 737 726 608 523 390 331 459 486 500 449 548 583 719 766 737 771 956 848 795 976 1389 1358 928 1054 1253 1091 898 785 681 563 598 657 859 1323 1425 1178 727 501 462 419 369 410 283 301 390 183 208 97 350 269 325 323 261 350 470 426 333 614 621 671 740 578 722 645 807 1050 1154 1174 1233 1487 1509 1458 1520 1380 1440 1416 1253 1209 787
1096 1004 839 740 603 628 593 705 576 534 251 460 356 388 547 483 482 684 782 756 791 810 809 760 955 1334 1424 1034 991 939 1130 1026 952 896 770 502 602 1205 1245 1190 862 625 703 699 494 470 420 314 316 287 178 164 147 366 406 582 663 615 488 372 497 714 888 550 432 763 680 757 590 506 279 394 622 977 1237 1240 1532 1455 1591 1586 1466 1488 1337 1202 989
1159 1008 856 640 595 622 616 480 318 288 183 386 436 410 536 560 651 852 833 935 1065 844 794 926 1436 1485 1193 1084 1116 1030 750 830 1190 991 830 883 957 1246 1054 698 914 603 791 727 492 404 446 328 318 380 294 256 370 337 604 694 706 805 720 706 767 1016 1020 790 899 1059 911 678 509 556 477 327 329 422 1005 940 1075 1388 1516 1576 1502 1518 1521 1402 1265
1018 861 680 621 626 565 481 316 295 262 285 428 443 376 494 789 862 978 1172 1418 1270 1023 977 942 1347 1276 998 802 1016 964 782 843 1305 1414 1280 1271 1231 1038 900 981 983 718 857 650 586 528 420 404 371 358 209 338 412 519 1124 1188 988 773 634 400 544 873 636 425 475 628 802 588 529 566 572 440 507 1011 751 515 853 1152 1276 1358 1479 1538 1602 1505 1536
836 668 711 674 714 558 383 345 339 438 615 786 644 608 822 1223 1508 1660 1775 1611 1598 1540 1447 1374 1475 1371 1425 1353 1091 913 1057 1032 1333 1186 1193 1159 1058 881 849 916 858 730 743 559 652 587 472 516 485 266 222 280 342 480 546 918 593 477 554 740 924 1024 1044 1080 816 1118 604 294 419 609 402 325 469 644 675 728 605 760 666 951 787 860 1096 1016 1152
702 705 723 660 706 626 599 792 771 796 771 650 692 811 1302 1527 1695 1720 1512 1408 1176 1571 1566 1525 1576 1577 1276 1476 1439 1451 1305 1157 1321 1115 1093 931 914 792 642 715 750 707 748 771 563 625 642 636 438 154 236 376 446 470 476 643 1005 1062 912 644 499 615 554 428 375 432 418 517 426 360 237 368 488 464 572 742 748 798 583 397 477 818 676 1090 1174
759 919 903 844 871 1075 1228 1272 1184 957 937 1193 1138 911 921 1167 1359 1064 1075 750 843 1277 1118 1018 897 811 1014 1601 1612 1490 1330 1170 1096 1036 994 981 934 720 472 618 708 871 909 1014 838 729 800 723 652 477 397 380 484 528 543 738 769 720 786 775 603 467 533 384 406 493 415 536 431 281 408 91 345 394 632 693 800 734 833 1007 1099 955 764 984 1046
974 921 878 917 1040 1304 1527 1544 1465 1314 1218 1262 1280 1298 1455 1407 1236 950 826 914 751 1047 1010 787 966 1074 1189 1304 1256 1248 1311 1078 1197 1077 1160 1176 831 542 576 594 758 901 1179 1071 907 870 854 904 851 800 456 466 577 600 889 773 744 742 608 492 478 622 1097 442 416 203 330 308 74 222 121 231 186 547 600 561 606 380 712 1072 843 932 619 602 492
869 823 841 1016 1212 1439 1665 1740 1598 1280 1238 1346 1289 924 811 816 769 602 647 618 607 723 807 871 864 951 1198 1371 1423 1350 1246 1189 1255 879 1111 1092 924 661 740 891 1081 1256 1288 1073 820 842 931 905 960 809 659 775 894 1297 982 604 550 547 446 454 382 370 549 483 382 350 142 132 9 4 8 9 108 423 514 528 535 603 828 626 771 874 724 734 736
827 851 905 1174 1304 1496 1671 1715 1304 845 783 760 392 290 306 161 19 100 135 138 467 564 690 839 974 1005 962 1101 1266 1293 1286 1220 1172 1166 980 919 799 629 698 950 1156 1298 1226 1112 790 779 879 922 942 669 614 674 790 1122 926 1150 694 735 551 343 311 291 326 323 228 208 27 2 185 11 0 159 262 314 97 81 195 435 456 428 435 683 810 550 533
770 760 911 1166 1349 1453 1504 1210 510 394 442 396 275 115 41 85 253 401 543 346 354 480 669 732 817 900 915 1000 918 873 832 898 879 924 836 723 554 631 624 729 918 922 1100 1165 843 1031 858 901 1026 803 638 454 745 839 670 664 706 577 398 416 362 290 231 227 168 45 4 0 0 0 0 106 234 133 0 236 260 65 95 157 518 647 566 506 421
766 756 812 935 1102 1164 1028 669 459 429 354 296 172 115 192 214 377 246 182 227 220 250 507 575 464 795 969 922 785 704 578 591 621 862 656 679 574 567 500 604 776 981 1231 1108 1060 1241 1098 1168 919 823 418 466 508 540 530 436 592 956 363 379 299 282 216 86 119 0 68 0 2 0 64 35 10 197 199 212 144 27 13 51 126 246 418 400 184
551 611 732 797 955 769 562 561 621 442 309 182 138 163 137 66 70 145 171 197 247 5 0 0 409 555 471 669 717 610 523 457 566 620 539 618 631 658 601 860 895 885 1037 1343 1030 1054 899 1190 1168 872 616 523 542 524 480 393 425 667 979 1483 632 88 259 79 0 0 0 0 0 1 15 12 121 190 159 17 7 0 0 3 96 330 54 0 0
640 684 714 878 896 710 583 688 716 578 365 219 226 283 200 126 59 56 44 186 317 215 206 27 26 136 125 235 332 580 508 486 548 536 394 515 746 983 813 797 716 715 912 1237 1323 1027 960 744 698 732 558 546 452 496 168 305 355 529 759 947 1126 607 86 10 172 0 0 0 0 0 0 0 0 0 0 0 0 0 6 4 457 235 11 0 0
914 934 894 954 907 682 651 752 830 893 815 475 346 446 278 288 254 346 546 336 0 0 0 0 0 0 0 4 12 158 154 456 539 556 458 543 780 762 606 561 463 673 838 714 924 1199 976 758 530 707 467 402 385 475 99 443 350 520 623 564 604 493 377 244 137 0 0 0 0 0 0 0 0 0 0 0 0 0 0 0 0 0 0 0 0
1179 1041 951 908 888 747 806 962 1134 1229 1185 767 614 807 415 514 564 524 395 276 0 0 0 0 0 7 125 78 0 20 0 0 1 50 131 108 148 126 386 485 568 577 681 546 658 1036 1078 728 606 511 648 482 510 255 386 444 696 702 706 729 772 457 351 431 427 45 8 0 0 0 0 0 0 0 0 0 0 0 0 0 0 0 0 0 0
1217 1156 1245 1108 981 978 1043 1193 1322 1356 1219 1075 1115 910 570 595 445 394 349 281 229 0 0 0 0 0 0 25 5 11 78 34 5 24 59 136 86 10 1 20 59 387 634 255 626 785 798 724 721 685 492 593 645 388 421 318 667 646 666 645 758 352 487 530 391 103 0 0 0 0 0 0 0 0 0 0 0 0 0 0 0 0 0 0 0
1435 1436 1411 1144 989 1030 1112 1266 1368 1329 1213 1070 1005 677 664 63 219 224 240 126 0 0 0 0 0 0 0 0 1 22 0 1 10 38 17 37 70 104 29 14 4 82 107 105 434 451 582 640 614 665 638 864 842 570 422 316 351 602 740 727 698 387 366 400 433 25 1 0 0 0 0 0 0 0 0 0 0 0 0 0 0 0 0 0 0
Wind_Speed
23 27 25 32 37 38 38 38 38 39 40 41 41 40 40 40 40 40 38 38 37 37 36 36 36 36 35 34 33 32 30 28 26 26 26 25 26 26 27 28 28 28 27 27 26 25 24 23 22 22 22 22 22 22 22 21 21 21 21 21 20 19 18 20 21 20 nan nan 20 19 18 18 nan nan nan nan nan nan nan nan 14 10 8 11 15
31 29 29 32 38 38 38 38 39 40 41 41 41 40 40 39 39 38 37 37 36 36 36 35 36 36 36 34 33 32 30 27 25 25 25 25 25 25 27 28 27 27 26 26 25 24 23 22 21 21 22 22 22 22 21 20 19 19 19 19 19 18 18 19 19 18 18 19 19 20 19 20 nan nan nan nan nan nan nan nan 17 10 8 15 16
36 34 32 33 37 38 38 38 39 41 41 40 39 40 39 38 38 37 37 36 37 36 35 35 35 36 36 34 33 33 31 27 26 24 24 24 24 24 24 24 25 25 24 24 23 23 22 21 21 21 21 22 22 23 22 20 19 18 18 18 17 16 16 16 17 19 18 17 19 20 20 19 18 nan nan nan nan nan nan nan 17 16 12 18 17
37 30 30 32 36 38 38 40 42 42 40 38 37 38 37 37 37 36 36 36 36 36 35 35 36 35 35 35 33 33 31 27 24 23 22 24 23 24 23 23 25 24 24 23 22 21 21 21 22 20 21 21 22 22 21 19 18 17 17 17 17 16 14 15 15 18 19 18 16 12 9 9 13 18 nan nan nan nan nan nan nan 18 19 17 18
35 30 28 29 32 37 40 42 43 41 38 36 35 36 36 36 36 35 35 36 36 36 36 36 36 36 35 34 34 32 30 26 23 22 20 21 22 23 22 22 24 23 22 21 21 20 20 20 21 20 21 21 21 20 19 18 17 16 16 16 15 13 13 10 12 13 19 19 14 10 9 10 10 16 nan nan 17 nan nan nan nan nan 18 19 18
34 32 30 31 33 37 43 43 41 39 36 35 35 35 35 35 35 35 36 36 36 36 36 37 38 37 36 35 34 32 29 25 23 21 20 20 20 22 23 23 22 20 20 20 20 20 19 21 21 21 20 20 21 19 17 16 15 15 15 14 12 11 9 8 4 5 1 8 12 8 nan 10 10 12 18 17 nan nan nan nan nan nan nan 18 17
36 33 34 33 33 36 42 42 39 37 35 35 35 34 34 35 36 36 37 37 37 37 37 38 39 38 37 35 34 31 27 23 22 21 18 18 19 20 22 22 21 20 19 19 19 20 20 20 21 21 20 20 20 18 15 14 15 14 13 13 12 10 9 6 4 1 4 4 5 7 9 nan 11 11 18 nan nan 18 18 nan nan 17 16 nan nan
34 33 33 32 32 36 40 38 37 36 35 34 34 33 34 35 36 37 37 37 38 38 38 39 40 39 38 36 33 30 25 22 22 22 21 19 19 19 19 20 20 21 20 19 19 20 21 21 21 21 20 20 19 16 14 14 14 13 13 12 11 10 9 7 6 5 4 1 2 5 nan 11 13 12 17 18 nan nan nan nan nan nan nan nan nan
34 33 32 32 33 39 38 36 35 35 34 33 33 34 34 36 37 37 38 38 38 39 39 39 40 39 38 36 33 29 23 22 23 23 23 22 21 21 20 20 20 19 19 19 17 18 21 22 22 22 22 20 17 16 15 13 13 14 13 12 11 10 10 8 8 8 3 6 5 4 7 nan 11 12 17 18 nan nan nan nan 18 nan nan nan nan
32 29 30 30 32 36 36 35 34 35 35 35 34 34 35 35 37 38 38 39 39 39 39 39 40 39 37 36 32 28 24 23 23 23 24 23 24 24 23 22 21 21 21 21 22 24 24 22 22 23 23 20 17 16 15 14 13 14 13 12 11 11 9 8 9 7 8 7 7 7 9 12 12 13 17 18 nan nan nan 16 14 nan nan 18 20
30 29 29 30 30 33 33 34 34 35 36 35 34 35 35 36 37 37 38 38 39 39 38 38 38 38 36 35 31 28 26 24 24 25 26 26 25 25 25 24 23 22 22 21 21 22 23 22 23 23 22 21 18 16 14 14 14 14 14 13 12 12 11 11 9 5 8 8 6 7 11 15 10 11 18 19 nan nan nan 21 20 19 nan nan 20
30 30 29 28 31 32 32 33 34 35 36 35 34 34 35 36 36 36 37 37 38 39 38 37 36 35 35 33 30 27 25 25 25 26 26 27 27 26 25 25 25 25 23 22 23 24 23 22 23 22 22 21 18 16 14 14 14 14 14 13 12 11 11 12 7 4 6 9 8 7 6 8 10 13 20 19 18 18 20 nan nan nan nan nan nan
30 30 28 27 27 31 32 33 34 35 36 35 35 34 34 35 36 36 36 36 37 37 36 35 33 33 33 33 29 28 27 26 27 28 28 28 28 27 26 25 26 26 24 22 22 23 23 23 22 21 21 20 18 16 15 14 14 14 13 13 13 13 13 13 5 6 7 9 7 8 9 6 7 17 18 19 18 18 19 19 20 nan nan nan nan
30 29 28 27 26 32 33 33 34 35 36 36 36 36 36 37 36 36 36 36 36 35 34 33 33 34 34 32 30 28 28 26 26 28 29 29 28 28 27 26 25 25 23 21 21 22 23 22 20 20 20 20 18 16 14 14 14 12 13 13 13 13 14 9 8 8 8 9 7 8 7 5 7 14 16 17 17 18 nan nan nan nan nan nan nan
30 30 28 27 27 27 33 32 33 35 35 35 36 37 37 36 35 34 34 34 34 34 34 34 35 34 33 32 32 31 29 27 27 29 30 30 29 28 28 27 26 25 23 21 21 22 22 20 19 19 19 19 19 16 14 13 12 11 12 13 13 13 15 9 8 8 9 8 7 9 7 5 13 13 14 15 16 17 17 17 18 19 nan nan nan
29 28 28 27 26 27 27 30 32 33 34 35 36 37 37 36 33 31 31 32 34 35 35 35 36 34 32 33 33 33 31 28 28 30 31 30 30 28 27 28 27 25 24 22 21 21 21 20 20 18 18 19 19 17 13 11 10 10 12 13 13 15 16 11 6 9 8 8 7 7 8 8 13 13 12 14 15 16 16 17 18 nan nan nan nan
27 27 27 27 27 26 26 26 28 32 33 34 34 36 37 33 29 29 32 33 34 35 36 36 36 34 31 32 33 32 31 30 31 32 34 32 29 28 28 28 27 26 26 25 23 21 21 21 20 18 17 17 18 17 14 10 9 10 11 12 13 14 15 15 11 11 10 10 9 7 7 7 13 14 13 14 15 16 15 16 17 17 nan nan nan
27 28 27 27 27 27 26 25 26 26 25 29 32 34 32 28 28 31 32 32 33 34 35 35 33 30 29 31 33 32 31 31 31 34 36 35 30 27 28 28 27 26 27 26 25 22 21 20 20 18 16 16 16 16 14 10 9 9 10 10 11 13 15 16 12 14 13 11 10 8 7 9 14 14 12 12 13 14 15 15 16 17 18 nan nan
28 28 27 27 27 27 26 25 24 23 24 25 26 27 26 26 30 31 30 31 32 33 33 33 31 29 30 32 34 33 32 31 31 33 38 39 32 26 27 27 26 26 26 26 24 21 19 19 18 16 15 14 15 15 14 11 9 10 9 9 10 13 17 12 13 16 17 12 11 10 9 14 13 14 13 12 13 13 15 15 16 17 17 17 nan
27 26 27 25 26 26 26 25 25 25 27 27 26 23 25 30 33 30 29 29 29 29 30 29 30 30 32 34 35 32 31 28 31 30 38 42 32 23 26 26 25 25 24 22 20 19 17 16 17 15 14 14 14 14 12 10 10 10 9 9 11 14 14 15 15 16 16 15 13 12 13 14 15 15 15 12 12 13 14 15 16 16 17 17 17
25 25 26 26 26 27 26 26 27 29 30 28 25 25 28 32 28 28 30 30 29 30 30 29 28 29 30 32 31 28 26 24 24 23 36 36 28 24 25 24 23 23 23 20 17 16 14 14 15 15 12 12 14 14 12 10 10 10 9 10 12 16 14 17 16 15 16 16 15 14 16 15 15 16 15 14 13 13 14 14 16 17 17 17 17
25 25 25 26 26 26 26 26 27 28 27 27 25 25 26 26 23 23 24 27 30 30 28 24 25 24 29 27 25 26 25 21 19 25 30 30 23 24 24 22 22 21 21 19 16 14 13 12 13 13 12 12 12 15 14 10 10 10 9 10 12 14 15 17 16 16 17 17 16 16 18 17 18 17 15 15 14 13 14 14 16 16 17 17 17
24 24 24 25 25 25 26 27 27 27 28 26 25 23 23 22 22 23 24 27 28 28 25 25 24 25 24 24 22 20 19 19 21 25 27 25 20 22 21 21 21 20 20 18 16 14 13 12 13 12 12 11 12 15 15 13 13 11 10 12 13 15 17 17 18 18 18 17 15 20 18 18 17 17 17 16 15 16 15 16 16 16 17 17 17
24 22 24 24 25 24 25 27 27 28 28 27 24 23 22 22 22 23 24 25 26 26 26 24 25 24 24 22 19 15 16 20 26 29 26 20 18 20 20 21 19 18 18 16 15 14 12 11 10 11 13 12 12 13 14 14 13 14 13 12 13 17 16 18 19 19 18 18 17 21 20 19 18 18 18 16 17 17 17 17 18 17 17 17 17
24 23 23 24 24 24 25 26 27 28 29 28 26 24 24 23 23 24 24 25 26 26 25 26 26 25 24 21 19 14 15 21 23 22 20 18 17 16 16 16 14 14 16 14 12 11 11 9 9 10 12 12 11 11 12 12 14 13 11 11 13 18 17 19 19 19 19 18 17 21 22 21 20 19 18 20 20 20 19 18 18 18 17 17 17
25 23 23 24 24 24 25 27 27 27 27 27 26 25 25 24 24 25 25 24 23 24 25 25 25 26 24 21 18 13 13 17 18 18 18 17 16 16 16 15 14 14 13 12 10 10 10 8 7 nan 10 10 9 8 9 9 11 11 12 12 15 16 17 18 19 19 19 19 19 23 23 22 21 21 19 22 21 21 21 20 19 18 18 17 18
24 24 23 23 25 25 26 27 28 26 26 25 25 25 25 24 25 25 24 21 21 24 25 26 27 26 22 18 14 11 12 16 17 17 17 17 16 16 15 14 14 13 12 11 9 8 8 6 7 8 8 7 5 5 4 5 10 10 13 19 17 16 15 17 18 19 19 20 21 26 25 23 23 23 22 23 23 22 22 20 18 17 18 17 17
25 25 24 25 25 27 26 26 26 25 23 23 24 23 22 24 24 26 24 22 22 25 26 27 26 23 19 16 12 12 13 15 16 17 15 15 16 16 17 17 15 16 14 11 9 6 6 6 7 7 7 6 6 3 2 7 16 14 17 15 17 15 14 16 18 20 20 21 21 24 25 24 23 22 24 25 25 23 21 20 18 19 19 18 18
27 26 25 25 25 26 26 27 25 22 21 20 22 21 23 23 26 22 21 19 19 23 23 24 22 18 16 14 13 14 13 14 15 15 15 14 15 17 17 16 15 14 13 12 11 10 10 9 9 9 8 8 6 4 2 15 12 8 13 14 13 13 15 16 17 19 19 20 21 23 27 25 24 21 25 25 24 23 23 22 19 19 20 20 19
28 27 25 23 24 24 25 26 26 24 22 19 20 22 22 24 25 21 18 20 17 18 17 15 13 14 12 11 13 15 13 14 15 15 16 15 16 15 14 13 14 13 12 12 11 11 10 10 8 8 11 11 nan nan 4 9 9 7 10 12 10 11 12 14 15 17 18 19 20 22 27 27 26 25 23 24 24 24 23 22 22 20 20 19 20
27 26 23 21 22 25 24 26 22 23 17 19 21 22 22 24 24 17 16 19 18 16 11 10 11 11 9 10 13 15 15 15 14 15 16 15 15 14 13 12 12 12 13 13 11 9 10 11 7 7 9 10 nan nan nan 6 6 9 9 11 8 10 11 13 15 16 17 17 18 19 22 27 27 27 26 25 24 23 23 24 22 21 20 22 20
26 24 22 21 23 25 25 26 23 19 15 19 22 23 23 23 22 18 16 17 15 12 9 10 10 10 9 11 15 15 14 14 14 15 15 14 15 14 12 12 11 12 13 12 11 10 10 7 5 6 8 9 12 nan nan 5 9 9 8 9 5 8 8 10 14 15 15 15 15 16 17 19 23 23 22 22 23 25 23 23 22 22 21 21 21
21 26 26 25 25 25 25 25 24 24 19 18 20 20 20 21 20 17 17 14 13 12 12 11 10 10 11 14 15 14 13 13 13 13 13 13 14 13 10 10 12 13 12 12 11 9 8 7 7 6 9 9 11 nan 8 5 10 7 7 8 8 8 6 8 11 15 14 13 15 17 18 17 16 18 19 22 22 23 23 23 22 22 22 23 23
25 26 28 27 25 23 22 23 22 20 15 15 14 18 16 15 12 14 14 13 12 12 12 11 10 11 12 13 12 12 14 13 12 10 11 11 12 10 11 13 13 13 12 11 11 9 9 7 7 8 8 10 8 nan 5 9 5 4 5 5 7 7 5 6 7 9 11 13 15 19 17 13 11 13 16 18 20 20 21 22 23 23 21 22 21
27 28 29 26 24 22 21 21 20 16 15 13 14 13 11 10 10 10 10 12 11 13 14 12 11 12 14 14 13 13 13 12 11 10 9 11 10 11 14 12 12 12 11 10 12 12 9 6 7 7 9 12 9 2 2 8 5 5 4 5 6 5 3 3 3 4 7 11 16 20 13 7 12 13 15 16 16 17 19 20 21 21 20 20 20
31 29 24 21 21 20 19 20 17 17 16 15 14 14 12 11 11 10 10 11 14 15 15 16 15 16 17 17 15 14 12 10 10 10 10 10 9 10 12 11 11 10 11 11 11 12 8 8 8 9 12 12 7 2 3 6 4 5 3 4 3 3 4 5 5 5 6 12 19 18 10 8 11 11 14 14 15 16 18 20 21 21 22 22 22
33 28 23 21 21 20 20 20 18 18 17 16 15 14 14 14 14 14 14 18 18 16 15 14 16 17 16 15 13 12 10 9 9 9 11 11 11 12 12 11 10 11 12 11 10 9 9 10 9 7 9 9 7 6 6 3 5 3 3 3 2 2 3 4 5 6 8 14 19 13 8 7 10 11 10 10 12 13 16 18 19 20 21 23 24
28 25 23 22 22 20 19 20 21 21 19 19 17 16 15 15 16 18 20 21 19 17 16 15 15 13 12 10 10 10 8 8 9 10 11 10 10 11 10 11 12 13 12 12 10 8 10 11 9 6 8 10 8 7 5 4 5 4 3 3 2 4 2 3 4 6 8 13 13 10 7 8 7 8 9 9 9 9 9 10 11 12 13 16 19
24 23 23 21 22 21 22 23 23 23 22 22 19 17 15 14 15 16 17 16 14 12 11 12 11 10 8 8 8 9 8 8 9 10 11 10 10 11 11 10 11 11 12 14 12 10 10 10 10 7 10 11 10 10 6 4 8 4 3 3 3 5 4 3 3 5 6 9 11 8 8 8 7 8 9 9 9 9 9 8 9 8 10 15 17
24 24 25 23 24 24 23 23 23 23 23 23 21 18 15 13 12 11 13 12 12 13 13 13 11 8 6 8 9 9 9 9 10 11 10 9 10 11 12 11 10 11 12 14 12 10 11 10 9 9 12 11 10 12 10 8 10 8 6 6 6 5 5 4 4 4 5 8 9 9 8 nan 8 9 10 10 10 10 10 11 12 13 13 15 17
26 25 25 23 23 23 23 23 21 21 22 22 20 19 16 13 10 11 12 13 17 16 16 14 14 11 11 12 13 11 11 11 13 13 12 11 11 12 13 11 10 10 12 11 11 11 10 8 8 7 10 11 9 9 8 11 12 9 8 9 9 6 6 6 4 4 7 10 nan 10 9 10 9 11 13 13 12 11 12 13 14 15 15 16 15
25 23 23 22 21 21 20 19 18 17 16 17 18 17 14 14 13 11 14 15 17 17 15 14 14 14 15 14 15 15 14 15 15 15 15 14 12 11 12 11 9 9 11 11 11 11 11 9 9 8 7 9 9 8 7 10 9 10 12 9 7 6 7 7 7 5 6 8 nan nan nan nan 12 12 13 15 15 15 15 15 15 16 16 16 15
23 22 21 22 20 18 17 17 16 16 16 17 17 15 13 14 nan 12 13 12 12 12 16 17 18 18 18 19 20 19 18 18 17 18 18 15 13 13 12 11 10 9 12 12 11 10 11 10 8 10 9 8 9 9 9 9 9 10 11 13 8 9 7 8 8 9 nan nan 11 nan nan 12 14 15 nan nan 16 18 17 16 16 17 18 18 18
20 21 20 21 19 17 16 15 15 14 15 14 13 12 nan nan 12 10 10 11 13 16 18 19 20 20 20 19 20 19 19 18 17 17 16 14 14 13 13 12 10 9 11 12 9 9 11 11 11 9 11 10 9 9 9 10 9 13 11 9 9 12 11 8 8 nan nan nan nan nan nan 14 16 17 nan 15 15 nan nan 17 18 18 19 19 19
21 22 20 19 17 15 12 11 11 10 11 11 13 12 11 10 9 11 10 15 17 19 19 19 18 19 20 20 17 18 18 18 18 19 17 16 14 13 12 12 12 11 11 11 12 11 12 13 13 12 9 10 11 9 8 9 8 10 12 13 12 11 9 nan 10 nan nan nan nan nan nan nan nan 18 16 14 16 nan nan nan 19 20 20 20 20
22 19 19 17 16 11 7 5 5 6 8 10 13 13 11 nan nan 14 18 20 18 nan nan nan 20 20 19 16 17 17 16 17 17 18 18 16 13 11 13 13 14 13 10 10 10 12 12 11 12 12 9 8 12 11 8 8 9 10 11 10 10 nan 13 nan nan nan nan nan nan nan nan nan 14 15 14 nan nan nan nan nan nan 20 nan nan nan
20 21 19 16 14 12 9 7 7 6 8 9 10 11 12 14 nan nan nan 24 21 19 20 nan nan 19 19 17 16 16 14 15 15 15 15 15 14 13 13 13 13 12 11 11 10 10 11 11 11 11 10 12 14 11 9 10 11 10 10 10 9 9 nan nan 11 nan nan nan nan nan nan nan nan nan nan nan nan nan nan nan 18 19 nan nan nan
22 21 19 15 14 13 10 8 7 7 7 7 6 8 15 17 21 24 26 25 nan nan nan nan nan nan nan nan nan 15 14 13 13 13 14 15 15 14 13 12 13 11 10 11 9 9 11 11 13 11 12 13 13 14 nan 10 13 10 10 10 8 11 13 14 13 nan nan nan nan nan nan nan nan nan nan nan nan nan nan nan nan nan nan nan nan
22 21 18 14 12 10 6 3 5 5 6 6 8 10 16 18 19 21 23 23 nan nan nan nan nan nan 19 nan nan nan nan nan nan nan 14 17 17 16 14 12 12 12 12 11 10 12 12 15 15 14 11 11 12 15 15 12 13 12 13 10 10 12 13 14 13 nan nan nan nan nan nan nan nan nan nan nan nan nan nan nan nan nan nan nan nan
21 21 19 16 12 9 5 3 3 4 4 5 7 9 10 14 15 18 22 23 24 nan nan nan nan nan nan nan nan nan nan nan nan nan nan 13 nan nan nan nan nan 15 15 15 16 18 17 15 14 14 12 10 13 17 17 15 14 14 14 14 13 12 14 13 11 13 nan nan nan nan nan nan nan nan nan nan nan nan nan nan nan nan nan nan nan
19 19 19 15 12 9 6 5 4 3 3 3 7 8 9 nan 16 19 20 20 nan nan nan nan nan nan nan nan nan nan nan nan nan nan nan nan nan 11 nan nan nan nan 17 17 20 20 18 17 14 15 13 14 15 17 17 16 16 16 14 15 15 15 15 14 12 nan nan nan nan nan nan nan nan nan nan nan nan nan nan nan nan nan nan nan nan
Wind_Direction
286 287 289 295 297 297 296 293 294 295 297 299 300 301 303 303 303 303 303 303 303 303 303 302 302 302 301 302 303 304 302 300 296 292 291 289 289 289 290 291 289 290 288 287 285 282 279 279 279 276 277 275 274 275 275 271 268 267 269 271 269 268 268 269 269 265 nan nan 244 243 244 240 nan nan nan nan nan nan nan nan 228 236 224 237 247
291 285 286 294 298 299 298 295 295 296 297 299 301 303 304 303 303 303 303 303 302 303 303 302 302 303 302 300 302 304 304 303 299 296 296 295 294 293 292 294 293 290 288 286 284 284 282 283 282 282 280 279 276 275 277 276 272 272 272 272 272 271 268 272 274 272 256 252 248 247 247 247 nan nan nan nan nan nan nan nan 229 223 224 246 246
285 286 285 292 297 299 299 297 296 297 298 300 303 304 304 303 303 303 303 303 302 302 303 303 303 302 302 299 301 303 305 304 302 301 300 298 298 295 293 291 288 287 287 286 284 284 287 284 279 280 280 278 274 273 277 279 276 275 274 274 274 274 278 279 280 273 266 258 250 248 249 249 247 nan nan nan nan nan nan nan 233 234 232 240 239
285 285 286 290 295 298 297 298 298 297 300 301 304 303 303 302 302 302 302 302 301 302 303 303 302 301 299 300 301 302 305 305 302 303 302 301 300 298 296 294 292 290 290 291 289 288 287 287 285 283 279 277 277 273 275 276 275 273 276 275 277 276 276 280 284 284 277 263 252 239 220 222 232 239 nan nan nan nan nan nan nan 237 239 239 243
280 284 287 289 292 294 294 297 298 299 300 301 302 301 300 300 300 301 301 301 302 303 303 302 301 299 298 300 301 302 305 305 302 303 304 301 301 301 299 293 295 294 290 290 290 290 288 288 287 286 283 282 278 279 276 275 273 272 266 267 269 270 269 274 291 294 287 274 239 224 220 223 220 239 nan nan 236 nan nan nan nan nan 237 238 240
278 282 283 286 288 290 293 296 296 298 298 299 299 299 298 299 300 301 301 301 301 302 302 301 299 298 298 299 301 304 306 304 301 302 300 300 302 302 298 295 291 291 293 295 293 293 291 289 287 285 282 282 280 279 276 269 265 258 253 256 252 258 255 257 262 310 147 173 204 211 nan 220 218 220 239 227 nan nan nan nan nan nan nan 233 240
280 281 282 283 283 288 292 294 296 296 298 298 299 297 298 300 302 302 302 301 301 302 301 300 298 297 297 298 300 304 305 303 299 297 292 295 299 298 297 297 295 295 298 298 297 295 293 290 287 282 284 283 280 279 273 261 255 246 240 246 250 243 249 247 254 211 184 191 197 209 209 nan 214 215 238 nan nan 230 231 nan nan 228 231 nan nan
276 280 281 281 282 288 291 294 296 297 300 299 299 299 301 303 303 303 302 301 301 301 301 299 297 297 297 298 299 301 301 299 297 292 287 285 286 292 293 295 295 298 301 300 297 294 291 287 285 282 280 281 280 278 271 261 251 242 234 235 234 231 226 215 215 175 147 256 227 228 nan 221 222 213 231 231 nan nan nan nan nan nan nan nan nan
276 280 280 282 285 291 294 297 298 302 303 302 303 303 303 305 303 303 301 300 300 300 300 298 296 296 296 297 298 299 295 292 295 290 287 284 282 282 277 274 272 275 283 283 287 289 284 284 283 282 280 276 277 273 269 259 251 241 230 227 219 218 211 203 180 173 173 289 281 253 235 nan 221 218 230 232 nan nan nan nan 220 nan nan nan nan
275 277 281 282 286 294 297 299 302 305 306 306 305 304 304 303 302 301 299 299 298 298 298 297 295 296 296 296 297 298 291 285 288 288 287 285 286 287 283 280 277 277 280 281 282 281 284 285 284 283 282 278 276 269 262 256 246 236 228 223 213 208 200 193 192 196 264 275 278 259 241 236 221 222 233 236 nan nan nan 239 232 nan nan 241 242
276 278 281 284 290 295 297 299 302 304 305 304 303 303 303 301 299 297 298 297 297 297 296 295 294 294 294 295 297 296 288 282 284 284 284 286 288 290 287 284 282 279 278 278 283 286 287 288 287 285 284 283 278 273 261 254 244 236 226 218 206 194 185 189 204 208 282 282 276 260 257 256 226 224 241 242 nan nan nan 231 234 238 nan nan 241
275 279 281 283 293 294 295 299 302 303 304 301 300 301 300 298 296 296 297 296 295 295 294 293 292 292 292 294 295 294 288 281 280 281 282 287 288 291 291 288 287 285 282 282 285 288 289 289 289 289 287 285 281 272 263 251 241 234 225 211 199 187 178 189 203 214 278 273 266 270 254 239 232 244 250 246 239 233 230 nan nan nan nan nan nan
275 277 280 283 287 294 297 300 302 302 300 299 299 298 296 294 294 295 295 294 293 293 292 291 289 288 288 291 293 293 289 283 280 279 279 284 288 289 292 290 289 289 289 288 289 291 291 292 292 291 287 281 274 267 256 244 236 227 220 209 196 183 177 182 218 272 274 271 276 275 275 266 253 255 251 248 243 240 236 234 233 nan nan nan nan
272 274 278 282 285 295 296 298 300 301 301 300 299 298 296 293 293 295 295 294 293 291 289 287 286 284 285 288 290 290 287 283 278 279 279 279 284 289 290 290 288 288 292 295 295 293 292 293 294 292 287 278 270 260 252 243 233 227 218 211 200 191 183 190 226 282 277 275 276 277 263 251 247 258 254 253 248 240 nan nan nan nan nan nan nan
274 277 276 278 281 285 295 295 297 300 301 300 299 297 294 292 293 294 294 294 291 288 286 285 285 286 287 288 288 288 288 289 285 280 277 279 281 285 289 288 285 285 288 294 298 297 293 295 293 288 286 282 274 266 256 246 238 229 224 216 206 200 197 204 221 274 271 269 269 275 277 274 270 265 262 257 251 247 245 245 247 245 nan nan nan
274 278 276 276 279 282 284 292 295 297 297 297 297 296 294 293 294 295 294 293 289 287 286 286 287 289 290 287 286 287 290 292 289 282 277 278 281 283 286 286 286 288 292 295 296 296 294 292 291 289 286 281 277 272 268 253 247 234 230 224 212 207 202 201 224 263 256 260 257 259 266 268 274 268 264 265 260 249 248 246 242 nan nan nan nan
276 278 278 277 279 278 279 282 289 292 291 294 295 295 294 293 293 297 295 289 287 286 286 286 288 291 289 286 285 286 288 289 288 284 278 276 280 282 284 284 283 288 292 294 294 290 290 292 290 290 291 284 280 280 273 263 251 242 233 229 221 217 208 203 254 263 256 259 261 256 258 269 282 276 270 267 263 258 253 250 251 250 nan nan nan
279 278 278 277 276 276 277 281 286 284 283 288 292 294 293 290 295 298 293 287 286 286 286 287 287 287 286 287 286 285 285 286 284 284 279 273 275 278 279 283 284 286 290 290 286 283 287 290 288 288 289 289 285 284 280 275 260 252 241 234 230 230 224 225 258 264 260 258 256 251 250 273 279 278 274 267 265 263 261 254 249 248 247 nan nan
276 278 277 277 276 276 277 280 281 278 280 283 289 292 285 283 294 297 289 287 287 286 286 285 287 286 288 288 287 286 287 288 285 284 280 271 268 273 278 282 283 286 291 289 286 284 283 285 285 284 286 288 290 286 284 277 267 258 247 239 235 235 239 243 248 260 266 260 254 253 252 266 273 276 276 274 268 263 265 259 254 253 252 248 nan
271 275 276 274 276 278 279 278 277 277 281 285 287 282 278 284 294 292 287 287 285 285 288 287 287 286 289 289 288 285 284 285 287 285 284 274 265 264 276 277 279 285 289 289 287 284 283 282 282 280 282 286 286 283 280 273 260 253 247 240 239 240 247 267 259 258 266 267 262 260 270 272 275 277 279 275 271 268 265 265 261 258 253 251 250
265 270 274 276 278 281 282 278 278 281 283 283 282 279 282 286 286 285 284 284 282 285 288 286 283 283 283 282 280 274 271 273 276 278 281 269 262 268 277 278 281 289 290 286 284 282 282 278 277 275 274 278 279 280 275 266 255 247 237 234 233 251 251 263 261 258 262 265 265 269 279 276 277 279 276 276 274 272 270 267 262 258 258 256 255
270 275 274 278 281 284 286 284 284 284 284 283 281 279 280 282 277 276 276 277 279 281 279 274 273 268 272 272 273 271 265 262 265 275 268 264 262 275 279 281 285 290 288 284 286 284 281 277 271 274 274 272 271 266 265 259 255 246 234 227 245 254 261 268 264 258 257 258 264 273 279 281 283 280 276 277 278 275 273 267 263 261 260 260 259
278 279 280 284 285 287 287 286 286 285 284 282 281 278 275 273 272 271 272 274 274 274 270 268 263 263 265 268 267 265 261 259 261 269 263 260 265 277 280 285 291 291 289 287 286 283 277 268 264 269 268 265 261 261 262 262 258 252 242 244 254 253 265 265 261 257 258 260 264 278 276 277 278 274 274 275 276 276 277 272 265 264 263 263 261
285 286 284 283 286 287 287 286 285 284 283 282 279 276 273 272 269 265 265 266 267 267 264 261 260 261 261 261 256 250 256 265 274 271 260 253 266 276 284 290 293 292 292 285 280 274 270 260 265 266 266 261 258 257 256 263 263 265 260 255 260 264 268 262 257 257 259 262 265 276 272 270 272 270 272 274 272 277 276 273 269 266 265 263 262
286 283 280 282 283 284 283 281 282 283 284 283 282 279 277 274 266 265 265 263 261 260 257 257 262 261 259 256 246 236 249 257 251 243 245 256 260 266 273 275 275 280 289 280 274 273 272 267 270 276 271 263 256 254 253 257 267 268 271 257 261 268 266 260 259 256 254 256 263 275 275 273 270 270 270 271 274 277 277 271 270 269 266 265 264
284 284 283 279 281 282 278 281 281 284 284 282 282 280 276 269 267 268 263 259 255 251 253 259 262 257 251 249 242 229 231 238 236 241 246 253 261 269 277 276 277 282 282 271 277 273 275 268 261 nan 274 269 262 255 254 260 273 270 264 262 254 275 269 264 262 260 259 259 261 269 272 274 273 274 273 274 276 274 271 272 271 271 270 269 268
286 284 282 277 277 281 279 282 285 284 283 282 283 282 273 269 266 266 262 254 253 253 255 259 259 255 246 242 243 223 223 232 235 239 245 248 262 274 277 275 275 278 281 271 265 267 276 267 255 253 259 264 255 263 278 291 284 278 259 257 269 274 273 272 268 266 262 261 262 265 261 263 273 275 275 276 275 274 274 272 271 271 271 272 270
281 279 279 276 276 277 279 280 283 284 286 283 281 272 263 258 258 249 242 248 252 258 259 254 253 247 240 239 222 208 225 237 235 238 246 248 255 264 271 265 261 261 267 267 266 258 260 256 248 236 231 234 225 189 8 280 243 247 271 269 269 272 271 269 264 261 260 260 260 263 264 261 259 273 276 276 277 277 274 268 266 271 274 274 270
278 278 277 278 277 275 276 280 275 274 279 271 273 262 253 253 260 255 253 254 262 264 252 246 243 233 233 230 206 209 220 232 232 243 255 256 260 262 264 264 263 264 266 261 256 251 239 224 230 227 214 208 186 189 269 257 257 253 272 274 271 268 264 263 262 261 261 263 262 265 268 262 256 259 275 274 277 276 271 271 267 267 272 273 271
278 281 280 281 283 281 282 284 287 277 271 272 266 269 268 268 264 267 267 260 260 256 237 233 219 210 222 214 206 213 228 236 238 252 261 261 259 263 262 264 270 269 264 261 251 242 224 215 235 236 207 199 nan nan 182 303 299 275 272 280 273 263 265 270 269 266 265 262 261 263 269 264 257 251 260 271 272 275 276 270 267 262 268 270 272
277 285 285 284 282 280 280 273 273 280 271 280 280 280 276 274 267 257 267 263 260 252 209 192 190 190 214 209 219 233 240 238 246 257 258 261 260 256 254 259 266 267 261 259 256 250 232 233 224 224 228 190 nan nan nan 235 291 283 269 264 278 282 274 271 266 271 272 270 268 265 264 264 260 257 256 259 265 266 273 272 273 272 267 273 275
285 286 283 276 272 270 266 268 283 286 286 285 281 274 270 273 275 273 270 265 250 239 202 197 197 202 222 219 232 242 245 243 253 257 258 257 262 261 251 257 262 260 261 266 262 245 233 238 223 217 230 214 187 nan nan 343 280 279 279 275 283 285 281 265 260 270 276 277 273 262 258 260 265 267 269 269 267 263 260 276 280 279 278 275 278
283 285 282 276 269 268 271 274 275 281 282 279 281 281 280 279 275 267 260 255 242 246 232 229 227 229 229 231 234 238 240 254 253 252 252 254 257 254 260 254 261 260 262 267 266 253 235 220 200 212 212 209 196 nan 121 294 266 265 287 287 278 271 268 258 258 267 281 277 268 263 261 262 267 275 274 269 267 264 264 263 269 271 273 278 277
282 279 277 272 269 269 273 274 273 280 284 290 289 290 292 281 268 256 254 248 237 259 258 244 242 240 236 235 236 237 241 253 257 253 255 253 248 248 257 252 255 262 263 267 267 264 262 240 202 211 211 218 221 nan 86 255 244 259 258 272 272 273 284 278 275 280 277 276 273 266 253 258 268 270 265 274 273 272 270 267 266 264 261 260 275
277 275 273 274 274 276 277 273 287 300 303 292 289 299 301 274 263 269 264 252 263 278 278 271 261 251 255 254 253 254 249 254 256 260 256 253 252 251 253 255 262 266 268 268 271 265 274 256 222 237 235 234 246 170 143 267 255 272 286 276 285 305 320 300 294 295 285 278 273 262 269 288 280 268 272 273 275 272 267 266 269 270 268 268 264
266 272 283 287 286 285 282 281 283 292 289 285 281 291 289 271 271 281 276 273 280 286 292 284 278 278 278 275 268 265 259 250 253 264 255 252 248 254 257 262 268 269 266 262 265 273 271 261 241 229 238 231 235 249 156 276 277 283 291 275 289 303 304 299 289 267 263 277 268 272 303 319 282 278 286 281 280 274 271 270 267 266 266 265 266
284 293 302 297 297 295 287 282 284 285 278 276 276 274 270 267 272 283 286 283 286 284 285 283 283 284 282 275 267 262 256 249 245 249 253 243 237 244 255 268 273 270 266 261 260 273 271 268 251 222 227 228 226 231 201 206 284 294 298 297 281 286 287 292 287 276 272 270 273 293 336 306 290 319 298 294 288 281 274 267 264 262 264 265 263
294 297 296 299 303 296 280 269 266 271 278 283 289 290 281 278 281 283 281 281 281 285 290 289 283 280 276 266 265 267 263 250 248 241 236 235 239 250 255 265 269 270 270 267 262 261 265 272 266 221 239 241 239 265 254 128 299 302 304 294 263 250 232 261 282 269 277 281 284 314 331 295 298 299 308 310 307 297 290 280 267 271 279 278 275
289 297 298 299 293 283 273 268 266 274 285 294 298 300 293 285 279 278 281 281 278 286 290 283 281 276 271 270 263 265 265 259 259 256 249 246 243 249 254 255 261 270 272 271 268 262 257 262 271 259 253 255 272 287 287 17 299 292 290 297 285 268 237 230 256 273 282 275 302 308 303 311 315 314 312 316 320 313 305 299 300 297 300 303 301
291 295 297 293 287 283 280 278 279 285 290 292 295 300 300 297 294 285 284 282 280 291 295 289 280 278 264 272 269 262 266 265 266 266 263 261 260 264 263 257 255 257 268 273 272 270 268 272 280 281 274 262 265 289 322 304 280 274 271 253 244 253 248 259 246 256 268 281 296 300 307 nan 313 316 314 321 318 319 312 304 297 296 309 305 303
295 295 295 293 291 294 292 290 289 291 294 294 295 298 298 295 285 295 285 282 286 287 280 268 267 267 264 274 285 293 288 279 275 277 277 274 271 272 273 272 263 261 270 276 278 276 276 280 284 273 280 273 262 270 277 280 282 261 256 263 252 254 273 278 271 263 266 301 nan 301 302 299 310 312 317 316 316 314 309 304 302 304 308 308 304
294 291 293 295 297 297 293 291 286 288 293 299 300 301 304 306 294 284 269 269 272 269 263 265 269 270 276 287 290 288 278 268 265 267 268 266 264 263 272 275 272 273 277 280 281 282 279 279 280 265 252 274 276 265 272 272 261 283 284 269 257 258 276 277 275 279 273 302 nan nan nan nan 309 306 303 306 312 309 306 305 304 306 305 304 303
294 290 290 291 292 292 294 293 287 283 289 299 304 309 306 299 nan 279 270 259 265 275 270 272 273 276 284 288 286 282 273 267 268 269 268 269 270 261 262 260 260 255 264 273 279 282 287 289 288 286 272 259 265 251 253 265 286 278 276 271 277 273 254 262 272 283 nan nan 309 nan nan 301 303 302 nan nan 304 302 303 304 305 303 300 299 298
292 290 288 289 288 290 288 291 289 281 287 299 299 300 nan nan 278 268 261 265 272 268 267 269 270 275 278 279 278 278 277 274 273 271 269 270 267 269 265 267 268 256 264 272 271 271 277 278 278 281 284 275 266 258 260 262 271 286 272 279 288 282 271 279 285 nan nan nan nan nan nan 299 299 295 nan 299 299 nan nan 302 298 297 297 295 296
293 295 291 289 289 296 291 295 294 291 291 290 289 293 283 267 243 228 253 270 262 262 264 266 271 272 272 272 271 268 271 275 274 275 277 275 273 274 275 272 271 259 253 263 270 273 258 267 277 277 274 278 274 265 258 257 254 257 287 274 264 267 286 nan 279 nan nan nan nan nan nan nan nan 298 300 299 298 nan nan nan 295 293 289 287 286
286 288 287 285 284 285 286 279 285 294 297 293 299 300 301 nan nan 246 267 282 276 nan nan nan 268 271 274 272 272 270 265 266 271 277 275 274 273 270 270 268 265 269 257 252 263 267 273 266 273 278 270 262 270 265 258 252 258 258 263 273 282 nan 302 nan nan nan nan nan nan nan nan nan 288 293 296 nan nan nan nan nan nan 287 nan nan nan
276 275 278 280 273 279 295 303 302 304 298 292 295 296 288 282 nan nan nan 283 281 271 270 nan nan 274 276 276 276 273 272 269 271 273 277 279 279 277 280 277 275 277 270 260 258 264 268 272 271 276 285 273 271 268 287 280 261 258 264 257 265 278 nan nan 296 nan nan nan nan nan nan nan nan nan nan nan nan nan nan nan 284 284 nan nan nan
279 277 278 277 280 287 302 312 303 294 285 281 279 275 274 268 268 265 267 272 nan nan nan nan nan nan nan nan nan 267 266 272 278 284 285 283 279 276 276 277 279 278 277 286 280 268 274 276 281 270 272 279 282 283 nan 277 283 273 271 271 270 267 276 278 287 nan nan nan nan nan nan nan nan nan nan nan nan nan nan nan nan nan nan nan nan
281 280 278 272 267 277 295 307 310 295 291 306 299 278 267 262 258 259 262 268 nan nan nan nan nan nan 267 nan nan nan nan nan nan nan 286 287 286 281 276 279 284 287 286 282 278 274 273 274 279 285 284 280 280 275 276 279 274 278 279 272 271 276 277 280 286 nan nan nan nan nan nan nan nan nan nan nan nan nan nan nan nan nan nan nan nan
283 277 264 252 249 253 270 288 289 287 283 298 307 297 276 268 269 268 270 268 265 nan nan nan nan nan nan nan nan nan nan nan nan nan nan 268 nan nan nan nan nan 276 279 279 277 272 268 270 274 279 285 285 273 279 283 286 282 283 287 291 285 281 273 272 281 284 nan nan nan nan nan nan nan nan nan nan nan nan nan nan nan nan nan nan nan
289 278 267 262 260 259 263 277 287 282 280 299 312 309 284 nan 284 279 274 270 nan nan nan nan nan nan nan nan nan nan nan nan nan nan nan nan nan 270 nan nan nan nan 270 271 269 273 270 266 262 262 268 273 273 273 276 283 286 287 285 290 293 298 299 297 309 nan nan nan nan nan nan nan nan nan nan nan nan nan nan nan nan nan nan nan nan